Location: ??????
(55.7522°N, 37.6156°E)
Time: 12:23:44
(UTC+00:00)

USA 229 DEB - Pass Details

Date: 13 December 2025
Orbit: 844 x 1364 km, 63.4° (Epoch: 10 January)

Event Time Altitude Azimuth Distance (km) Brightness Sun altitude
Exits shadow 01:17:55 49° 24° (NNE) 1,457 4.4 -36.5°
Drops below altitude 10° 01:24:59 10° 87° (E) 3,227 7.0 -35.5°
Sets 01:28:04 0° 93° (E) 4,258 7.8 -35.1°
